Погода в Усть-Щугере

Россия / Республика Коми     64°16′01″N   57°37′06″E
темп.,
°C
ветер,
м/с
пор.,
м/с
влажн.,
%
обл.,
%
осадки,
мм/ч
давл.,
гПа
погр.,
м
26 февраля, пт
пт2600:00−21ю3895100 0.0 1023237
03:00−22ю3895100 0.0 1023257
06:00−22ю399599 0.0 1022254
09:00−20ю4992100 0.0 1021381
12:00−17ю5108581 0.0 1020537
15:00−16ю3108671 0.0 1019535
18:00−19ююв399198 0.0 1018285
21:00−21ююв399273 0.0 1018191
27 февраля, сб
сб2700:00−21ююв399163 0.0 1018188
03:00−22ююв259173 0.0 1019104
06:00−22ююв2390100 0.0 101855
09:00−18ю248699 0.0 1018185
12:00−13ююв247919 0.0 1017435
15:00−14юв118810 0.0 101620
18:00−19вюв23930 0.0 101645
21:00−22юв35890 0.0 101779
28 февраля, вс
вс2800:00−24юв238921 0.0 101738
03:00−25ююв228842 0.0 101720
06:00−26ююв228856 0.0 101620
09:00−21ю248640 0.0 1016179
12:00−17ю25854 0.0 1016303
15:00−16ююз249036 0.0 1016190
18:00−19ююз239589 0.0 101669
21:00−19ю249591 0.0 101799
1 марта, пн
пн100:00−19ю369599 0.0 1017180
03:00−18ю379798 0.1 1016239
06:00−19ю389796 0.1 1016266
09:00−17ю499598 0.3 1014358
12:00−15ю51093100 0.1 1012445
15:00−14ю61193100 0.3 1010505
18:00−14ю61493100 0.1 1007533
21:00−13ю71493100 0.6 1005618
2 марта, вт
вт200:00−13ю61494100 0.8 1003640
03:00−14ю61294100 1.5 1002633
06:00−14ю51294100 0.8 1000642
09:00−14ю51193100 1.4 1000622
12:00−13ю5992100 0.5 1000630
15:00−13ю4892100 0.9 1001619
18:00−14ю3895100 0.3 1002444
21:00−14ю2796100 0.4 1002294